| time (UTC) | temp C | wind direction | speed KPH | gust KPH | rain 1hr cm | rain 24hr cm | rain mn cm | humidity % | barometer mb |
| 20260506025853 | 18 | 282 | 4.8 | 9.7 | 0.00 | 0.00 | 0.00 | 49 | 1012.5 |
| 20260506025350 | 18 | 269 | 0.0 | 1.6 | 0.00 | 0.00 | 0.00 | 48 | 1012.3 |
| 20260506024847 | 19 | 279 | 1.6 | 1.6 | 0.00 | 0.00 | 0.00 | 46 | 1012.4 |
| 20260506024344 | 19 | 242 | 1.6 | 3.2 | 0.00 | 0.00 | 0.00 | 44 | 1012.3 |
| 20260506023840 | 19 | 228 | 3.2 | 3.2 | 0.00 | 0.00 | 0.00 | 42 | 1012.0 |
| 20260506023337 | 20 | 146 | 0.0 | 0.0 | 0.00 | 0.00 | 0.00 | 41 | 1011.8 |
| 20260506022834 | 20 | 284 | 1.6 | 1.6 | 0.00 | 0.00 | 0.00 | 40 | 1012.0 |
| 20260506022332 | 20 | 148 | 0.0 | 0.0 | 0.00 | 0.00 | 0.00 | 39 | 1011.8 |
| 20260506021830 | 20 | 208 | 3.2 | 3.2 | 0.00 | 0.00 | 0.00 | 39 | 1012.0 |
| 20260506021326 | 20 | 13 | 1.6 | 1.6 | 0.00 | 0.00 | 0.00 | 39 | 1011.8 |
| 20260506020823 | 20 | 101 | 0.0 | 0.0 | 0.00 | 0.00 | 0.00 | 38 | 1011.8 |
| 20260506020321 | 20 | 338 | 1.6 | 1.6 | 0.00 | 0.00 | 0.00 | 38 | 1011.6 |
| 20260506015818 | 20 | 296 | 1.6 | 1.6 | 0.00 | 0.00 | 0.00 | 38 | 1011.9 |
| 20260506015315 | 21 | 253 | 1.6 | 3.2 | 0.00 | 0.00 | 0.00 | 37 | 1011.8 |
| 20260506014812 | 21 | 206 | 4.8 | 4.8 | 0.00 | 0.00 | 0.00 | 36 | 1011.5 |
| 20260506014309 | 21 | 333 | 3.2 | 3.2 | 0.00 | 0.00 | 0.00 | 36 | 1011.7 |
| 20260506013806 | 21 | 25 | 3.2 | 3.2 | 0.00 | 0.00 | 0.00 | 36 | 1011.7 |
| 20260506013303 | 21 | 342 | 6.4 | 8.0 | 0.00 | 0.00 | 0.00 | 36 | 1011.8 |
| 20260506012759 | 21 | 307 | 6.4 | 8.0 | 0.00 | 0.00 | 0.00 | 35 | 1011.9 |
| 20260506012256 | 21 | 300 | 3.2 | 3.2 | 0.00 | 0.00 | 0.00 | 34 | 1011.9 |
| 20260506011754 | 21 | 83 | 1.6 | 1.6 | 0.00 | 0.00 | 0.00 | 35 | 1011.8 |
| 20260506011250 | 22 | 36 | 6.4 | 8.0 | 0.00 | 0.00 | 0.00 | 34 | 1011.9 |
| 20260506010748 | 21 | 136 | 0.0 | 1.6 | 0.00 | 0.00 | 0.00 | 35 | 1012.2 |
| 20260506010245 | 22 | 53 | 8.0 | 9.7 | 0.00 | 0.00 | 0.00 | 34 | 1011.8 |
| 20260506005742 | 22 | 335 | 3.2 | 3.2 | 0.00 | 0.00 | 0.00 | 34 | 1011.8 |
| 20260506005239 | 22 | 9 | 4.8 | 4.8 | 0.00 | 0.00 | 0.00 | 35 | 1012.0 |
| 20260506004735 | 22 | 64 | 1.6 | 1.6 | 0.00 | 0.00 | 0.00 | 35 | 1011.9 |
| 20260506004233 | 22 | 340 | 6.4 | 8.0 | 0.00 | 0.00 | 0.00 | 35 | 1011.8 |
| 20260506003728 | 21 | 4 | 6.4 | 9.7 | 0.00 | 0.00 | 0.00 | 35 | 1011.9 |
| 20260506003225 | 22 | 277 | 3.2 | 4.8 | 0.00 | 0.00 | 0.00 | 35 | 1011.8 |
| 20260506002721 | 22 | 215 | 4.8 | 4.8 | 0.00 | 0.00 | 0.00 | 35 | 1011.7 |
| 20260506002217 | 22 | 356 | 8.0 | 12.9 | 0.00 | 0.00 | 0.00 | 36 | 1012.0 |
| 20260506001713 | 22 | 346 | 3.2 | 8.0 | 0.00 | 0.00 | 0.00 | 36 | 1011.8 |
| 20260506001211 | 22 | 326 | 9.7 | 12.9 | 0.00 | 0.00 | 0.00 | 35 | 1011.8 |
| 20260506000708 | 22 | 41 | 6.4 | 8.0 | 0.00 | 0.00 | 0.00 | 35 | 1011.9 |
| 20260506000205 | 22 | 20 | 3.2 | 3.2 | 0.00 | 0.00 | 0.00 | 36 | 1011.9 |
| 20260505235703 | 22 | 344 | 4.8 | 4.8 | 0.00 | 0.00 | 0.00 | 36 | 1011.8 |
| 20260505235200 | 21 | 251 | 8.0 | 9.7 | 0.00 | 0.00 | 0.00 | 35 | 1011.9 |
| 20260505234657 | 21 | 56 | 1.6 | 3.2 | 0.00 | 0.00 | 0.00 | 36 | 1011.8 |
| 20260505234154 | 22 | 164 | 4.8 | 4.8 | 0.00 | 0.00 | 0.00 | 33 | 1012.0 |
| 20260505233650 | 22 | 120 | 1.6 | 3.2 | 0.00 | 0.00 | 0.00 | 34 | 1012.2 |
| 20260505233148 | 22 | 155 | 1.6 | 3.2 | 0.00 | 0.00 | 0.00 | 34 | 1011.9 |
| 20260505232646 | 21 | 115 | 3.2 | 4.8 | 0.00 | 0.00 | 0.00 | 36 | 1011.8 |
| 20260505232143 | 21 | 154 | 1.6 | 1.6 | 0.00 | 0.00 | 0.00 | 34 | 1012.0 |
| 20260505231639 | 21 | 41 | 4.8 | 8.0 | 0.00 | 0.00 | 0.00 | 33 | 1012.3 |
| 20260505231139 | 21 | 34 | 3.2 | 4.8 | 0.00 | 0.00 | 0.00 | 36 | 1012.2 |
| 20260505230636 | 21 | 43 | 1.6 | 1.6 | 0.00 | 0.00 | 0.00 | 37 | 1011.9 |
| 20260505230132 | 21 | 238 | 4.8 | 4.8 | 0.00 | 0.00 | 0.00 | 36 | 1012.2 |
| 20260505225629 | 22 | 246 | 6.4 | 8.0 | 0.00 | 0.00 | 0.00 | 34 | 1011.9 |
| 20260505225125 | 21 | 259 | 3.2 | 3.2 | 0.00 | 0.00 | 0.00 | 35 | 1012.3 |
| 20260505224622 | 21 | 307 | 3.2 | 3.2 | 0.00 | 0.00 | 0.00 | 35 | 1012.4 |
| 20260505224119 | 20 | 299 | 3.2 | 3.2 | 0.00 | 0.00 | 0.00 | 36 | 1012.4 |
| 20260505223616 | 21 | 51 | 11.3 | 16.1 | 0.00 | 0.00 | 0.00 | 36 | 1012.3 |
| 20260505223113 | 21 | 136 | 1.6 | 3.2 | 0.00 | 0.00 | 0.00 | 37 | 1012.6 |
| 20260505222609 | 21 | 143 | 4.8 | 4.8 | 0.00 | 0.00 | 0.00 | 38 | 1012.5 |
| 20260505222105 | 21 | 333 | 9.7 | 11.3 | 0.00 | 0.00 | 0.00 | 37 | 1012.4 |
| 20260505221602 | 21 | 56 | 1.6 | 1.6 | 0.00 | 0.00 | 0.00 | 38 | 1012.6 |
| 20260505221059 | 21 | 357 | 3.2 | 4.8 | 0.00 | 0.00 | 0.00 | 41 | 1012.7 |
| 20260505220556 | 22 | 294 | 4.8 | 4.8 | 0.00 | 0.00 | 0.00 | 37 | 1012.8 |
| 20260505220054 | 21 | 113 | 1.6 | 1.6 | 0.00 | 0.00 | 0.00 | 38 | 1012.7 |
| 20260505215552 | 21 | 306 | 1.6 | 3.2 | 0.00 | 0.00 | 0.00 | 40 | 1013.0 |
| 20260505215049 | 20 | 213 | 4.8 | 4.8 | 0.00 | 0.00 | 0.00 | 41 | 1012.8 |
| 20260505214548 | 21 | 162 | 1.6 | 1.6 | 0.00 | 0.00 | 0.00 | 41 | 1013.1 |
| 20260505214044 | 20 | 132 | 1.6 | 1.6 | 0.00 | 0.00 | 0.00 | 41 | 1013.0 |
| 20260505213542 | 20 | 310 | 4.8 | 8.0 | 0.00 | 0.00 | 0.00 | 43 | 1013.3 |
| 20260505213038 | 20 | 347 | 8.0 | 11.3 | 0.00 | 0.00 | 0.00 | 42 | 1013.1 |
| 20260505212534 | 20 | 6 | 8.0 | 9.7 | 0.00 | 0.00 | 0.00 | 43 | 1013.2 |
| 20260505212032 | 20 | 74 | 0.0 | 1.6 | 0.00 | 0.00 | 0.00 | 43 | 1013.4 |
| 20260505211529 | 19 | 40 | 3.2 | 3.2 | 0.00 | 0.00 | 0.00 | 44 | 1013.2 |
| 20260505211025 | 19 | 136 | 3.2 | 3.2 | 0.00 | 0.00 | 0.00 | 45 | 1013.5 |
| 20260505210522 | 19 | 30 | 1.6 | 1.6 | 0.00 | 0.00 | 0.00 | 45 | 1013.5 |
| 20260505210019 | 18 | 71 | 3.2 | 4.8 | 0.00 | 0.00 | 0.00 | 46 | 1013.5 |
| 20260505205517 | 18 | 123 | 8.0 | 9.7 | 0.00 | 0.00 | 0.00 | 47 | 1013.4 |
| 20260505205014 | 19 | 238 | 0.0 | 1.6 | 0.00 | 0.00 | 0.00 | 43 | 1013.8 |
| 20260505204512 | 18 | 79 | 1.6 | 3.2 | 0.00 | 0.00 | 0.00 | 46 | 1013.9 |
| 20260505204009 | 18 | 53 | 4.8 | 8.0 | 0.00 | 0.00 | 0.00 | 47 | 1013.9 |
| 20260505203505 | 18 | 30 | 8.0 | 11.3 | 0.00 | 0.00 | 0.00 | 47 | 1013.6 |
| 20260505203002 | 18 | 35 | 8.0 | 12.9 | 0.00 | 0.00 | 0.00 | 47 | 1013.6 |
| 20260505202458 | 18 | 53 | 4.8 | 8.0 | 0.00 | 0.00 | 0.00 | 45 | 1013.8 |
| 20260505201954 | 18 | 71 | 3.2 | 4.8 | 0.00 | 0.00 | 0.00 | 48 | 1013.8 |
| 20260505201451 | 18 | 160 | 4.8 | 4.8 | 0.00 | 0.00 | 0.00 | 48 | 1014.0 |
| 20260505200949 | 17 | 348 | 4.8 | 8.0 | 0.00 | 0.00 | 0.00 | 51 | 1013.9 |
| 20260505200447 | 17 | 345 | 4.8 | 4.8 | 0.00 | 0.00 | 0.00 | 53 | 1013.8 |
| 20260505195942 | 19 | 156 | 1.6 | 1.6 | 0.00 | 0.00 | 0.00 | 47 | 1014.1 |
| 20260505195440 | 18 | 198 | 1.6 | 3.2 | 0.00 | 0.00 | 0.00 | 50 | 1014.0 |
| 20260505194937 | 17 | 347 | 3.2 | 3.2 | 0.00 | 0.00 | 0.00 | 50 | 1014.0 |
| 20260505194434 | 17 | 71 | 1.6 | 3.2 | 0.00 | 0.00 | 0.00 | 52 | 1013.9 |
| 20260505193934 | 17 | 75 | 1.6 | 3.2 | 0.00 | 0.00 | 0.00 | 52 | 1013.9 |
| 20260505193432 | 18 | 108 | 3.2 | 3.2 | 0.00 | 0.00 | 0.00 | 50 | 1014.2 |
| 20260505192930 | 17 | 122 | 1.6 | 1.6 | 0.00 | 0.00 | 0.00 | 51 | 1014.1 |
| 20260505192428 | 16 | 71 | 0.0 | 1.6 | 0.00 | 0.00 | 0.00 | 55 | 1014.1 |
| 20260505191925 | 16 | 165 | 4.8 | 4.8 | 0.00 | 0.00 | 0.00 | 55 | 1014.5 |
| 20260505191424 | 16 | 194 | 3.2 | 3.2 | 0.00 | 0.00 | 0.00 | 54 | 1014.3 |
| 20260505190920 | 15 | 54 | 3.2 | 3.2 | 0.00 | 0.00 | 0.00 | 58 | 1014.2 |
| 20260505190415 | 16 | 354 | 4.8 | 8.0 | 0.00 | 0.00 | 0.00 | 57 | 1014.2 |
| 20260505185910 | 16 | 207 | 4.8 | 4.8 | 0.00 | 0.00 | 0.00 | 58 | 1014.1 |
| 20260505185408 | 15 | 128 | 1.6 | 3.2 | 0.00 | 0.00 | 0.00 | 58 | 1014.0 |
| 20260505184904 | 15 | 352 | 3.2 | 8.0 | 0.00 | 0.00 | 0.00 | 60 | 1014.2 |
| 20260505184401 | 15 | 76 | 3.2 | 3.2 | 0.00 | 0.00 | 0.00 | 59 | 1014.0 |
| 20260505183858 | 15 | 12 | 4.8 | 4.8 | 0.00 | 0.00 | 0.00 | 61 | 1014.2 |
| 20260505183355 | 15 | 71 | 3.2 | 3.2 | 0.00 | 0.00 | 0.00 | 63 | 1014.2 |
| 20260505182851 | 14 | 55 | 1.6 | 1.6 | 0.00 | 0.00 | 0.00 | 61 | 1014.2 |
| 20260505182348 | 14 | 27 | 1.6 | 1.6 | 0.00 | 0.00 | 0.00 | 61 | 1014.3 |
| 20260505181845 | 15 | 78 | 1.6 | 3.2 | 0.00 | 0.00 | 0.00 | 59 | 1014.1 |
| 20260505181342 | 15 | 225 | 3.2 | 4.8 | 0.00 | 0.00 | 0.00 | 61 | 1014.1 |
| 20260505180839 | 15 | 210 | 1.6 | 3.2 | 0.00 | 0.00 | 0.00 | 63 | 1014.1 |
| 20260505180335 | 14 | 262 | 1.6 | 3.2 | 0.00 | 0.00 | 0.00 | 66 | 1014.1 |
| 20260505175832 | 14 | 122 | 1.6 | 3.2 | 0.00 | 0.00 | 0.00 | 65 | 1014.1 |
| 20260505175328 | 13 | 134 | 1.6 | 3.2 | 0.00 | 0.00 | 0.00 | 68 | 1014.2 |
| 20260505174825 | 13 | 113 | 4.8 | 8.0 | 0.00 | 0.00 | 0.00 | 68 | 1014.1 |
| 20260505174323 | 12 | 96 | 0.0 | 0.0 | 0.00 | 0.00 | 0.00 | 70 | 1014.1 |
| 20260505173818 | 13 | 161 | 4.8 | 8.0 | 0.00 | 0.00 | 0.00 | 70 | 1014.0 |
| 20260505173315 | 13 | 101 | 1.6 | 1.6 | 0.00 | 0.00 | 0.00 | 71 | 1014.0 |
| 20260505172812 | 12 | 127 | 3.2 | 4.8 | 0.00 | 0.00 | 0.00 | 71 | 1014.0 |
| 20260505172310 | 12 | 163 | 4.8 | 8.0 | 0.00 | 0.00 | 0.00 | 74 | 1014.0 |
| 20260505171804 | 12 | 71 | 3.2 | 3.2 | 0.00 | 0.00 | 0.00 | 72 | 1013.9 |
| 20260505171301 | 12 | 177 | 1.6 | 3.2 | 0.00 | 0.00 | 0.00 | 74 | 1014.1 |
| 20260505170757 | 12 | 174 | 6.4 | 8.0 | 0.00 | 0.00 | 0.00 | 74 | 1013.8 |
| 20260505170255 | 11 | 158 | 1.6 | 3.2 | 0.00 | 0.00 | 0.00 | 74 | 1013.9 |
| 20260505165755 | 11 | 218 | 1.6 | 1.6 | 0.00 | 0.00 | 0.00 | 76 | 1014.0 |
| 20260505165251 | 11 | 153 | 3.2 | 3.2 | 0.00 | 0.00 | 0.00 | 76 | 1013.9 |
| 20260505164747 | 11 | 169 | 3.2 | 3.2 | 0.00 | 0.00 | 0.00 | 78 | 1013.9 |
| 20260505164244 | 11 | 169 | 6.4 | 8.0 | 0.00 | 0.00 | 0.00 | 77 | 1013.8 |
| 20260505163743 | 10 | 175 | 1.6 | 3.2 | 0.00 | 0.00 | 0.00 | 79 | 1013.9 |
| 20260505163241 | 10 | 152 | 3.2 | 3.2 | 0.00 | 0.00 | 0.00 | 80 | 1013.6 |
| 20260505162738 | 10 | 144 | 1.6 | 1.6 | 0.00 | 0.00 | 0.00 | 82 | 1013.9 |
| 20260505162235 | 10 | 139 | 1.6 | 3.2 | 0.00 | 0.00 | 0.00 | 82 | 1013.6 |
| 20260505161732 | 10 | 146 | 3.2 | 3.2 | 0.00 | 0.00 | 0.00 | 81 | 1013.6 |
| 20260505161230 | 10 | 151 | 3.2 | 3.2 | 0.00 | 0.00 | 0.00 | 82 | 1013.6 |
| 20260505160726 | 10 | 209 | 3.2 | 3.2 | 0.00 | 0.00 | 0.00 | 80 | 1013.4 |
| 20260505160225 | 10 | 137 | 0.0 | 1.6 | 0.00 | 0.00 | 0.00 | 78 | 1013.6 |
| 20260505153203 | 9 | 128 | 0.0 | 1.6 | 0.00 | 0.00 | 0.00 | 80 | 1013.3 |
| 20260505152700 | 9 | 248 | 1.6 | 1.6 | 0.00 | 0.00 | 0.00 | 81 | 1013.2 |
| 20260505152156 | 9 | 344 | 1.6 | 1.6 | 0.00 | 0.00 | 0.00 | 81 | 1013.2 |
| 20260505151651 | 9 | 344 | 1.6 | 1.6 | 0.00 | 0.00 | 0.00 | 81 | 1013.2 |
| 20260505151149 | 8 | 308 | 3.2 | 3.2 | 0.00 | 0.00 | 0.00 | 81 | 1013.1 |
| 20260505150645 | 8 | 314 | 3.2 | 3.2 | 0.00 | 0.00 | 0.00 | 83 | 1013.0 |
| 20260505150142 | 8 | 283 | 0.0 | 1.6 | 0.00 | 0.00 | 0.00 | 85 | 1013.0 |
| 20260505140610 | 8 | 189 | 1.6 | 3.2 | 0.00 | 0.00 | 0.00 | 89 | 1012.4 |
| 20260505140108 | 8 | 148 | 4.8 | 4.8 | 0.00 | 0.00 | 0.00 | 88 | 1012.4 |
| 20260505125024 | 7 | 188 | 1.6 | 1.6 | 0.00 | 0.00 | 0.00 | 88 | 1011.9 |
| 20260505124521 | 7 | 156 | 0.0 | 0.0 | 0.00 | 0.00 | 0.00 | 88 | 1011.8 |
| 20260505124017 | 7 | 175 | 0.0 | 1.6 | 0.00 | 0.00 | 0.00 | 87 | 1011.8 |
| 20260505123514 | 7 | 176 | 0.0 | 0.0 | 0.00 | 0.00 | 0.00 | 88 | 1011.6 |
| 20260505123010 | 7 | 124 | 0.0 | 0.0 | 0.00 | 0.00 | 0.00 | 87 | 1011.8 |
| 20260505122507 | 7 | 196 | 0.0 | 1.6 | 0.00 | 0.00 | 0.00 | 86 | 1011.6 |
| 20260505122004 | 7 | 179 | 0.0 | 0.0 | 0.00 | 0.00 | 0.00 | 86 | 1011.5 |
| 20260505121500 | 7 | 220 | 0.0 | 1.6 | 0.00 | 0.00 | 0.00 | 87 | 1011.9 |
| 20260505120956 | 7 | 203 | 1.6 | 1.6 | 0.00 | 0.00 | 0.00 | 86 | 1011.8 |
| 20260505120453 | 7 | 175 | 0.0 | 0.0 | 0.00 | 0.00 | 0.00 | 87 | 1011.6 |
| 20260505115952 | 7 | 155 | 0.0 | 0.0 | 0.00 | 0.00 | 0.00 | 86 | 1011.8 |
| 20260505115449 | 7 | 164 | 0.0 | 0.0 | 0.00 | 0.00 | 0.00 | 86 | 1011.6 |
| 20260505114947 | 7 | 216 | 0.0 | 0.0 | 0.00 | 0.00 | 0.00 | 85 | 1011.8 |
| 20260505114442 | 7 | 235 | 0.0 | 0.0 | 0.00 | 0.00 | 0.00 | 84 | 1011.6 |
| 20260505113939 | 7 | 221 | 0.0 | 0.0 | 0.00 | 0.00 | 0.00 | 84 | 1011.8 |
| 20260505113436 | 7 | 296 | 0.0 | 1.6 | 0.00 | 0.00 | 0.00 | 84 | 1011.7 |
| 20260505112932 | 7 | 243 | 1.6 | 3.2 | 0.00 | 0.00 | 0.00 | 84 | 1011.7 |
| 20260505112430 | 7 | 253 | 1.6 | 3.2 | 0.00 | 0.00 | 0.00 | 84 | 1011.7 |
| 20260505111925 | 7 | 254 | 0.0 | 1.6 | 0.00 | 0.00 | 0.00 | 84 | 1011.6 |
| 20260505111420 | 7 | 241 | 1.6 | 4.8 | 0.00 | 0.00 | 0.00 | 85 | 1011.7 |
| 20260505110917 | 7 | 211 | 1.6 | 1.6 | 0.00 | 0.00 | 0.00 | 86 | 1011.4 |
| 20260505110414 | 7 | 248 | 0.0 | 0.0 | 0.00 | 0.00 | 0.00 | 86 | 1011.7 |
| 20260505101844 | 7 | 262 | 0.0 | 0.0 | 0.00 | 0.00 | 0.00 | 92 | 1011.9 |
| 20260505101339 | 7 | 267 | 0.0 | 0.0 | 0.00 | 0.00 | 0.00 | 92 | 1012.2 |
| 20260505100835 | 7 | 204 | 1.6 | 3.2 | 0.00 | 0.00 | 0.00 | 92 | 1011.8 |
| 20260505100332 | 7 | 207 | 1.6 | 1.6 | 0.00 | 0.00 | 0.00 | 92 | 1011.9 |
| 20260505095828 | 7 | 220 | 1.6 | 1.6 | 0.00 | 0.00 | 0.00 | 92 | 1011.9 |
| 20260505095326 | 7 | 182 | 3.2 | 3.2 | 0.00 | 0.00 | 0.00 | 90 | 1011.9 |
| 20260505094821 | 7 | 205 | 0.0 | 0.0 | 0.00 | 0.00 | 0.00 | 89 | 1011.9 |
| 20260505094319 | 7 | 222 | 3.2 | 3.2 | 0.00 | 0.00 | 0.00 | 88 | 1012.3 |
| 20260505093814 | 7 | 185 | 4.8 | 4.8 | 0.00 | 0.00 | 0.00 | 86 | 1012.3 |
| 20260505093312 | 7 | 207 | 3.2 | 3.2 | 0.00 | 0.00 | 0.00 | 84 | 1012.0 |
| 20260505092808 | 7 | 208 | 1.6 | 1.6 | 0.00 | 0.00 | 0.00 | 85 | 1012.2 |
| 20260505092307 | 7 | 228 | 3.2 | 3.2 | 0.00 | 0.00 | 0.00 | 84 | 1012.0 |
| 20260505091804 | 7 | 299 | 3.2 | 3.2 | 0.00 | 0.00 | 0.00 | 84 | 1012.2 |
| 20260505091302 | 7 | 249 | 3.2 | 3.2 | 0.00 | 0.00 | 0.00 | 84 | 1012.0 |
| 20260505090800 | 7 | 326 | 6.4 | 8.0 | 0.00 | 0.00 | 0.00 | 84 | 1011.9 |
| 20260505090258 | 7 | 5 | 3.2 | 3.2 | 0.00 | 0.00 | 0.00 | 85 | 1012.3 |
| 20260505085755 | 7 | 14 | 0.0 | 1.6 | 0.00 | 0.00 | 0.00 | 86 | 1012.2 |
| 20260505085253 | 7 | 9 | 0.0 | 0.0 | 0.00 | 0.00 | 0.00 | 86 | 1012.3 |
| 20260505084749 | 7 | 36 | 1.6 | 1.6 | 0.00 | 0.00 | 0.00 | 86 | 1012.0 |
| 20260505084249 | 7 | 297 | 3.2 | 3.2 | 0.00 | 0.00 | 0.00 | 86 | 1012.4 |
| 20260505083745 | 7 | 255 | 4.8 | 4.8 | 0.00 | 0.00 | 0.00 | 86 | 1012.3 |
| 20260505083242 | 7 | 236 | 1.6 | 3.2 | 0.00 | 0.00 | 0.00 | 87 | 1012.6 |
| 20260505082738 | 7 | 203 | 1.6 | 3.2 | 0.00 | 0.00 | 0.00 | 86 | 1012.4 |
| 20260505082236 | 7 | 200 | 0.0 | 1.6 | 0.00 | 0.00 | 0.00 | 87 | 1012.5 |
| 20260505081731 | 7 | 218 | 1.6 | 1.6 | 0.00 | 0.00 | 0.00 | 87 | 1012.7 |
| 20260505081229 | 7 | 162 | 0.0 | 0.0 | 0.00 | 0.00 | 0.00 | 87 | 1012.8 |
| 20260505080726 | 7 | 237 | 3.2 | 3.2 | 0.00 | 0.00 | 0.00 | 87 | 1012.7 |
| 20260505080221 | 7 | 346 | 0.0 | 0.0 | 0.00 | 0.00 | 0.00 | 87 | 1012.5 |
| 20260505075717 | 7 | 333 | 4.8 | 4.8 | 0.00 | 0.00 | 0.00 | 88 | 1012.6 |
| 20260505075214 | 7 | 352 | 0.0 | 1.6 | 0.00 | 0.00 | 0.00 | 90 | 1012.3 |
| 20260505074712 | 7 | 303 | 1.6 | 1.6 | 0.00 | 0.00 | 0.00 | 92 | 1012.5 |
| 20260505074209 | 7 | 17 | 1.6 | 1.6 | 0.00 | 0.00 | 0.00 | 92 | 1012.8 |
| 20260505073706 | 7 | 219 | 3.2 | 4.8 | 0.00 | 0.00 | 0.00 | 94 | 1012.5 |
| 20260505073204 | 6 | 258 | 0.0 | 1.6 | 0.00 | 0.00 | 0.00 | 95 | 1013.0 |
| 20260505072700 | 6 | 233 | 0.0 | 0.0 | 0.00 | 0.00 | 0.00 | 95 | 1013.0 |
| 20260505072156 | 6 | 196 | 0.0 | 0.0 | 0.00 | 0.00 | 0.00 | 95 | 1012.8 |
| 20260505071652 | 6 | 150 | 0.0 | 0.0 | 0.00 | 0.00 | 0.00 | 94 | 1013.1 |
| 20260505071150 | 6 | 133 | 0.0 | 0.0 | 0.00 | 0.00 | 0.00 | 94 | 1012.7 |
| 20260505070647 | 7 | 125 | 0.0 | 0.0 | 0.00 | 0.00 | 0.00 | 93 | 1012.7 |
| 20260505070143 | 7 | 124 | 0.0 | 0.0 | 0.00 | 0.00 | 0.00 | 93 | 1012.5 |
| 20260505065639 | 7 | 208 | 1.6 | 1.6 | 0.00 | 0.81 | 0.81 | 93 | 1012.7 |
| 20260505065136 | 7 | 258 | 0.0 | 0.0 | 0.00 | 0.81 | 0.81 | 92 | 1012.6 |
| 20260505064633 | 7 | 166 | 0.0 | 0.0 | 0.00 | 0.81 | 0.81 | 91 | 1012.5 |
| 20260505064131 | 7 | 166 | 0.0 | 0.0 | 0.00 | 0.81 | 0.81 | 91 | 1012.2 |
| 20260505063628 | 7 | 171 | 3.2 | 3.2 | 0.00 | 0.81 | 0.81 | 90 | 1012.0 |
| 20260505063124 | 7 | 198 | 1.6 | 1.6 | 0.00 | 0.81 | 0.81 | 91 | 1011.9 |
| 20260505062620 | 7 | 155 | 1.6 | 3.2 | 0.00 | 0.81 | 0.81 | 90 | 1011.8 |
| 20260505062118 | 7 | 186 | 1.6 | 3.2 | 0.00 | 0.81 | 0.81 | 89 | 1011.7 |
| 20260505061615 | 7 | 179 | 0.0 | 0.0 | 0.00 | 0.81 | 0.81 | 89 | 1011.8 |
| 20260505061113 | 7 | 86 | 0.0 | 0.0 | 0.00 | 0.81 | 0.81 | 86 | 1011.9 |
| 20260505060610 | 7 | 141 | 1.6 | 1.6 | 0.00 | 0.81 | 0.81 | 84 | 1011.9 |
| 20260505060107 | 7 | 164 | 0.0 | 1.6 | 0.00 | 0.81 | 0.81 | 84 | 1011.7 |
| 20260505055602 | 7 | 173 | 0.0 | 1.6 | 0.00 | 0.81 | 0.81 | 82 | 1011.8 |
| 20260505055059 | 7 | 189 | 4.8 | 4.8 | 0.00 | 0.81 | 0.81 | 82 | 1011.7 |
| 20260505054556 | 7 | 201 | 4.8 | 8.0 | 0.00 | 0.81 | 0.81 | 83 | 1011.9 |
| 20260505054055 | 7 | 251 | 3.2 | 4.8 | 0.00 | 0.81 | 0.81 | 83 | 1012.0 |
| 20260505053551 | 7 | 274 | 3.2 | 3.2 | 0.00 | 0.81 | 0.81 | 84 | 1011.9 |
| 20260505053048 | 7 | 180 | 1.6 | 3.2 | 0.00 | 0.81 | 0.81 | 84 | 1012.2 |
| 20260505052545 | 7 | 237 | 1.6 | 1.6 | 0.00 | 0.81 | 0.81 | 84 | 1012.2 |
| 20260505052043 | 7 | 238 | 8.0 | 11.3 | 0.00 | 0.81 | 0.81 | 83 | 1012.2 |
| 20260505051539 | 7 | 10 | 0.0 | 1.6 | 0.00 | 0.81 | 0.81 | 83 | 1012.4 |
| 20260505051037 | 7 | 331 | 4.8 | 4.8 | 0.00 | 0.81 | 0.81 | 83 | 1012.4 |
| 20260505050535 | 7 | 232 | 0.0 | 1.6 | 0.00 | 0.81 | 0.81 | 84 | 1012.3 |
| 20260505041503 | 7 | 235 | 6.4 | 8.0 | 0.00 | 0.81 | 0.81 | 90 | 1011.6 |
| 20260505041000 | 6 | 246 | 8.0 | 11.3 | 0.00 | 0.81 | 0.81 | 90 | 1011.6 |
| 20260505040457 | 6 | 222 | 4.8 | 4.8 | 0.00 | 0.81 | 0.81 | 91 | 1012.2 |
| 20260505035954 | 6 | 193 | 3.2 | 4.8 | 0.00 | 0.81 | 0.81 | 90 | 1012.0 |
| 20260505035450 | 6 | 296 | 4.8 | 4.8 | 0.00 | 0.81 | 0.81 | 91 | 1012.2 |
| 20260505034948 | 7 | 334 | 1.6 | 3.2 | 0.00 | 0.81 | 0.81 | 90 | 1012.0 |
| 20260505034444 | 7 | 313 | 3.2 | 4.8 | 0.18 | 0.81 | 0.81 | 91 | 1011.8 |
| 20260505033941 | 7 | 294 | 4.8 | 4.8 | 0.18 | 0.81 | 0.81 | 91 | 1011.8 |
| 20260505033437 | 7 | 333 | 9.7 | 11.3 | 0.00 | 0.79 | 0.79 | 91 | 1011.8 |
| 20260505032936 | 7 | 315 | 3.2 | 3.2 | 0.00 | 0.79 | 0.79 | 91 | 1011.5 |
| 20260505032433 | 7 | 214 | 9.7 | 12.9 | 0.13 | 0.79 | 0.79 | 91 | 1011.2 |
| 20260505031929 | 7 | 206 | 4.8 | 8.0 | 0.43 | 0.79 | 0.79 | 92 | 1011.4 |
| 20260505031426 | 7 | 174 | 4.8 | 4.8 | 0.48 | 0.76 | 0.76 | 93 | 1012.0 |
| 20260505030923 | 6 | 214 | 1.6 | 3.2 | 0.18 | 0.71 | 0.71 | 92 | 1012.0 |
| 20260505030419 | 6 | 321 | 4.8 | 4.8 | 0.13 | 0.69 | 0.69 | 91 | 1011.9 |